Location: Castifao
(42.5040°N, 9.1124°E)
Time: 18:23:50
(UTC+00:00)

Cosmos 2341 Rocket - Pass Details

Date: 23 January 2020
Orbit: 967 x 1005 km, 82.9° (Epoch: 26 February)

Event Time Altitude Azimuth Distance (km) Brightness Sun altitude
Rises 16:58:55 0° 172° (S) 3,717 7.2 -6.6°
Reaches altitude 10° 17:01:29 10° 168° (SSE) 2,769 6.5 -7.0°
Maximum altitude 17:07:41 56° 92° (E) 1,178 4.2 -8.1°
Drops below altitude 10° 17:13:52 10° 16° (NNE) 2,769 6.1 -9.2°
Sets 17:16:25 0° 12° (NNE) 3,717 6.7 -9.7°
